BEIDOU-3 M20

Last updated on Mon Feb 13 2023 00:03:21 GMT+0000 (Coordinated Universal Time)

1 44865U 19090B 23042.96234545 -.00000005 00000+0 00000+0 0 9999 2 44865 55.5654 103.5435 0016133 283.5325 209.0222 1.86231672 21468

Satellite not in orbit